Theta_e
349 339 338 336 337 338 339 338 335 333 332 327 323 321 319 332 343 343 342 342 342 340 334 325 318 317 313 311 313 322 331 325 328 330 333 331 331 326 321 317 318 321 322
347 338 337 336 337 338 338 336 334 334 330 325 323 317 318 324 342 342 342 341 337 326 319 317 315 311 310 311 312 316 321 331 333 333 335 331 330 329 330 332 330 319 321
342 337 335 336 337 338 337 335 335 334 329 325 324 317 316 317 326 338 336 328 319 316 316 313 311 311 313 314 315 323 336 335 334 335 332 324 331 329 333 334 334 331 320
338 334 334 336 337 337 336 336 335 333 329 326 324 316 316 317 317 317 317 316 315 314 312 312 313 315 318 320 329 333 332 333 332 331 331 323 328 333 335 333 333 332 328
340 334 334 336 337 337 337 336 336 334 328 326 329 321 319 318 313 311 311 311 311 311 312 315 320 322 326 328 333 331 332 332 332 327 325 315 315 318 328 333 331 332 332
343 341 335 337 337 337 337 337 336 334 332 328 333 330 328 323 314 310 310 311 312 313 315 320 324 326 328 330 330 328 329 331 331 323 314 312 310 310 311 314 320 325 326
344 344 339 339 339 338 337 338 337 335 333 333 338 335 331 327 319 311 312 313 315 316 318 322 323 324 327 328 328 328 332 331 328 317 315 314 312 311 310 309 308 308 310
343 344 341 341 339 338 338 339 338 337 336 333 332 339 333 329 323 314 313 314 316 318 319 320 321 321 322 323 323 323 328 329 328 327 318 315 315 314 313 311 310 308 308
344 342 341 341 340 340 340 339 337 337 338 335 326 337 337 330 327 321 315 315 316 318 319 320 320 320 320 320 320 321 327 326 330 329 321 320 319 318 317 315 313 311 309
346 342 340 340 340 341 341 338 339 338 336 332 321 326 337 334 332 326 322 317 316 317 318 319 320 320 320 320 321 321 328 331 331 329 323 322 321 321 321 320 317 314 312
344 342 339 341 340 341 340 338 340 338 334 328 325 321 320 334 334 331 329 324 319 317 316 317 318 319 319 319 319 321 327 331 330 329 327 322 322 321 321 321 321 320 316
343 343 342 342 341 341 341 338 339 338 335 331 327 321 319 318 331 331 326 325 323 322 320 319 317 316 318 320 320 322 328 329 328 327 325 322 322 322 321 321 320 321 321
343 344 342 342 342 342 340 338 338 338 334 334 327 325 330 329 326 341 330 326 324 322 322 322 322 321 321 325 325 325 329 329 329 328 325 323 321 321 321 321 321 320 320
341 342 342 344 342 342 339 339 337 338 337 337 334 329 331 330 329 331 331 327 325 325 324 324 331 330 325 321 322 322 324 327 325 327 326 325 322 322 322 322 322 321 320
339 340 341 345 343 342 340 339 337 338 338 336 333 328 328 330 324 328 332 332 329 331 330 330 334 333 329 328 325 320 319 320 324 323 323 324 324 324 323 323 324 324 324
341 341 341 341 343 341 342 339 337 337 337 337 335 327 327 330 331 330 332 334 334 335 334 334 332 328 330 328 329 328 321 319 320 322 323 325 325 325 325 325 324 325 326
339 340 340 341 342 343 340 339 338 337 337 337 336 332 326 328 331 332 333 334 333 333 331 329 330 329 325 326 326 326 327 323 324 325 325 326 326 326 326 326 326 326 326
340 340 341 339 340 341 340 339 339 338 338 337 336 335 331 329 327 327 329 331 328 330 327 327 325 323 322 324 325 326 327 325 324 326 328 328 327 327 327 327 326 327 326
340 340 339 339 338 338 340 339 338 338 337 337 337 337 336 334 333 330 328 329 327 327 326 326 325 325 326 327 327 326 327 327 327 328 328 328 328 328 326 325 325 326 326
340 338 338 339 340 339 339 339 339 338 338 337 338 336 336 336 333 332 332 332 331 328 326 325 326 326 326 327 327 327 326 327 327 327 328 329 330 329 327 324 324 325 324
339 340 337 338 338 339 339 338 337 339 338 337 337 336 335 336 336 333 331 334 334 332 330 329 329 328 328 327 328 328 328 329 329 330 330 330 329 329 328 325 325 325 324
336 336 336 334 337 336 335 335 338 338 338 337 337 337 336 336 336 336 334 334 336 335 333 332 332 330 329 329 329 330 330 330 331 331 330 330 329 328 327 326 324 325 324
336 337 336 335 335 334 334 335 335 335 337 337 336 334 334 335 335 333 334 333 333 334 334 333 333 332 331 331 331 330 331 331 330 330 330 330 327 326 326 325 324 324 324
335 334 333 335 336 333 332 333 332 333 333 333 334 334 333 332 333 333 332 331 331 331 331 332 332 332 332 332 332 332 332 331 331 329 328 327 326 325 325 324 323 322 322
332 332 330 331 336 335 332 330 329 328 328 328 328 327 328 327 326 325 327 328 327 325 325 326 329 330 331 333 332 332 332 331 330 330 328 328 326 325 324 323 322 321 319
325 330 330 329 330 331 328 327 326 327 327 325 325 325 325 325 326 324 324 326 327 324 323 323 324 327 328 331 333 332 331 330 328 329 328 327 326 325 323 323 321 319 317
Wind_Speed
18 25 23 21 20 18 16 13 11 9 9 10 10 11 13 17 20 22 21 20 18 13 10 10 11 12 15 17 19 20 21 20 22 22 22 22 20 20 19 18 16 17 17
22 27 25 22 20 18 16 13 11 10 10 11 12 12 14 17 17 17 16 14 11 8 8 11 13 16 19 21 21 22 23 23 23 21 20 22 22 21 20 19 18 16 16
25 29 26 23 21 18 16 13 11 10 11 12 13 14 16 15 14 12 10 7 7 10 13 15 17 20 21 22 23 25 26 24 20 20 18 17 21 20 19 18 16 16 15
28 29 27 24 21 18 15 13 12 11 12 13 15 17 18 17 15 13 12 12 13 15 17 19 20 21 22 22 25 26 25 23 19 15 11 13 17 16 17 19 20 16 16
25 28 27 24 21 18 15 14 12 12 13 14 16 16 17 17 16 15 15 16 18 19 19 20 20 20 21 22 24 23 22 20 16 10 9 13 12 12 12 12 14 14 14
23 23 26 23 21 18 15 14 13 13 14 16 16 15 15 16 16 17 18 19 19 19 20 19 20 20 20 21 20 18 20 20 10 10 14 14 13 12 9 8 7 7 8
25 20 24 22 19 17 15 13 13 13 13 16 16 13 13 15 16 17 19 19 19 19 19 19 18 18 18 18 17 18 19 15 8 13 14 13 15 14 13 12 11 9 8
28 23 24 22 18 17 15 14 13 13 11 14 16 15 12 14 14 16 17 17 18 18 18 17 16 16 16 15 14 15 16 14 13 12 13 13 13 13 13 13 12 11 10
18 20 25 23 19 15 15 14 13 11 10 13 16 15 12 13 14 14 15 15 15 16 16 15 15 15 14 14 13 14 13 12 13 7 11 11 12 13 13 13 13 12 11
22 20 24 23 20 18 17 13 14 11 10 13 16 16 14 11 12 12 13 13 12 13 13 13 12 12 11 11 11 12 13 13 10 6 8 9 10 11 12 12 12 11 11
21 19 21 21 21 18 17 16 14 12 11 13 12 12 13 12 9 10 11 11 11 10 10 9 8 8 9 8 8 8 10 10 2 4 6 7 8 9 10 10 10 10 10
24 25 22 19 20 17 16 16 14 12 12 8 7 9 12 10 9 8 9 12 11 9 8 7 7 6 6 7 5 5 7 6 1 4 5 6 6 7 7 8 9 9 10
25 26 24 21 21 20 16 15 14 12 11 7 5 13 12 6 9 12 8 10 8 10 8 5 4 4 4 4 1 2 5 5 1 7 6 7 7 6 6 7 8 9 9
27 24 25 22 23 19 16 15 14 13 8 9 8 12 14 13 14 13 9 7 7 5 5 7 5 3 1 3 3 3 1 2 3 7 6 7 7 8 7 7 8 8 9
22 25 24 23 20 19 19 18 15 14 15 12 11 14 12 8 9 8 6 4 2 1 0 3 6 8 5 2 3 4 6 6 5 6 7 6 7 8 9 9 8 8 9
28 26 26 19 24 20 19 19 18 16 16 10 12 14 13 11 10 11 11 6 2 4 3 4 8 8 7 5 5 6 5 4 5 5 7 7 7 8 9 9 10 10 10
29 26 31 23 19 19 20 19 21 19 14 14 13 12 15 15 16 17 16 17 16 17 14 12 10 10 8 7 8 7 7 5 7 6 5 7 8 9 8 9 9 10 12
25 28 26 25 27 22 19 19 19 20 17 16 12 12 12 14 16 16 17 16 14 14 13 13 11 9 8 7 6 4 8 8 7 7 6 9 9 10 10 10 9 11 11
24 25 27 27 28 29 21 20 20 19 20 18 16 13 11 13 13 14 15 15 14 14 14 12 10 9 7 8 9 9 10 9 8 8 9 10 10 11 10 10 11 11 11
21 18 18 20 27 26 30 24 21 22 21 18 17 15 15 12 13 13 12 11 12 15 14 12 11 10 11 11 9 11 10 11 11 12 12 10 8 12 13 11 11 9 10
24 22 20 20 20 23 23 31 28 27 24 24 21 22 18 16 14 14 14 12 12 13 12 10 11 13 12 11 13 14 13 12 11 11 10 9 6 12 16 12 13 11 12
24 25 22 21 22 21 20 20 25 28 27 25 25 23 22 19 16 13 13 14 14 14 13 12 14 14 14 14 13 10 9 12 9 9 7 9 13 16 16 15 14 13 13
22 26 24 22 23 22 19 19 17 20 24 25 25 22 20 18 16 17 16 15 16 17 17 15 17 19 17 15 16 14 6 6 4 7 13 14 15 16 17 15 15 14 16
23 23 24 21 19 18 21 19 15 13 13 16 16 16 15 14 11 15 17 16 16 16 18 20 22 23 21 20 19 21 20 19 10 7 12 15 13 17 17 19 18 14 12
28 27 25 27 25 22 19 20 15 13 7 9 11 11 10 9 7 8 9 10 13 14 15 18 22 24 27 23 22 22 22 20 22 24 17 16 15 16 16 13 14 15 15
23 26 29 29 26 24 20 18 16 17 14 14 12 14 13 11 9 9 11 15 14 16 17 18 27 32 28 25 24 23 24 23 22 19 19 19 18 18 18 17 15 17 17
Wind_Direction
175 161 158 153 146 143 137 130 120 107 89 81 82 92 112 117 109 108 113 118 117 107 94 79 77 83 87 95 100 100 98 89 81 77 70 67 68 71 69 70 72 71 74
162 161 158 154 148 144 138 131 120 105 90 87 88 92 116 131 125 121 120 117 112 94 85 89 92 92 95 97 98 99 95 90 82 75 61 63 70 70 70 68 67 71 75
162 160 158 156 149 145 140 132 122 105 97 94 92 99 110 125 139 138 131 123 107 103 101 100 99 99 98 97 99 99 89 82 77 71 45 67 70 67 64 61 66 69 71
159 157 157 155 150 148 143 134 124 111 104 102 97 100 105 111 116 123 125 119 110 107 106 104 102 101 100 100 101 99 85 82 79 81 82 68 83 80 78 73 72 66 64
156 158 157 154 153 151 146 136 126 116 110 109 105 102 104 104 108 113 114 112 110 108 107 104 101 102 103 105 108 106 94 84 70 72 78 72 81 79 77 73 76 79 71
148 160 157 155 154 150 144 135 129 124 121 116 113 107 102 98 100 108 111 111 110 111 109 105 105 104 105 107 111 107 93 79 84 65 75 73 71 67 64 61 59 53 51
151 167 157 156 154 149 145 140 133 130 129 127 124 116 111 105 104 111 114 115 112 110 109 109 108 107 111 110 108 100 102 102 83 67 65 67 64 62 58 53 49 44 40
165 171 159 156 156 155 151 144 138 139 139 143 141 133 130 118 111 113 118 118 116 113 111 110 108 107 108 107 105 102 96 85 65 61 64 65 65 62 59 56 53 49 45
165 169 164 159 160 156 152 152 146 149 154 154 153 148 139 134 123 117 119 119 118 116 115 114 113 111 109 106 103 102 100 91 96 52 51 58 61 59 56 53 52 49 47
162 171 167 164 164 160 158 161 160 151 158 145 148 157 160 148 144 133 125 124 127 125 122 120 117 114 109 103 101 101 89 70 52 32 40 45 49 51 51 49 47 47 43
147 168 167 167 169 169 171 164 165 160 159 139 144 155 170 169 147 152 140 131 128 130 130 130 126 118 111 102 96 99 97 89 98 340 15 25 33 38 41 41 40 36 33
158 162 171 171 168 172 182 176 175 169 159 166 151 141 152 160 170 157 162 157 151 145 137 133 127 122 126 106 84 91 84 84 351 310 351 6 15 19 25 27 26 25 26
173 163 171 177 173 180 186 183 179 172 159 140 145 141 119 191 177 180 200 171 172 156 156 145 129 139 124 93 297 91 119 207 17 308 330 345 355 1 2 9 14 14 14
176 175 172 173 186 190 188 195 180 151 135 174 188 143 175 196 206 200 212 221 198 189 186 158 97 354 277 185 188 179 227 236 214 269 300 325 339 345 348 350 356 2 2
177 186 183 181 185 186 192 193 177 155 179 199 195 174 190 192 178 180 224 238 233 175 286 138 144 237 282 288 276 238 229 228 239 250 292 316 329 337 337 338 341 340 344
181 182 190 187 189 192 184 195 177 180 186 205 213 188 179 188 168 194 193 237 196 244 237 215 243 218 240 234 256 295 288 254 244 256 276 301 320 328 330 330 329 329 325
187 183 192 182 190 191 205 199 181 188 190 205 228 212 195 187 185 197 194 208 210 213 218 223 214 231 234 229 242 234 271 268 278 281 289 299 308 322 324 326 318 312 307
193 191 197 196 192 198 205 206 194 192 193 198 210 224 211 203 202 209 200 215 220 218 220 225 232 234 231 237 248 240 255 262 258 269 288 297 306 312 316 314 311 304 296
199 198 201 201 200 202 201 207 203 196 199 207 203 216 235 220 221 222 215 218 220 222 229 225 229 229 234 238 240 240 252 270 281 281 270 272 287 296 303 302 307 302 299
192 200 195 195 198 203 207 203 208 209 208 207 210 218 213 229 238 228 217 221 225 228 231 229 228 229 230 241 250 260 262 270 275 279 279 280 287 287 296 293 300 289 299
192 191 202 204 199 198 199 209 212 210 207 204 212 211 218 218 223 241 220 214 226 237 241 236 238 237 241 241 253 266 274 275 281 286 283 283 259 263 280 288 293 286 293
202 202 201 205 205 207 208 208 212 218 213 216 213 218 213 208 214 226 237 215 223 243 243 236 245 250 248 252 257 265 279 285 282 267 268 245 237 255 271 286 289 284 289
203 201 204 202 203 212 211 213 207 211 215 225 224 227 227 227 222 226 235 235 233 235 251 258 252 256 261 258 258 250 247 247 217 229 229 240 262 267 277 283 285 280 284
204 205 207 195 206 209 206 213 216 220 227 235 240 231 229 228 232 240 241 250 257 263 269 274 272 266 264 261 254 259 257 256 243 234 239 255 270 283 279 281 284 283 280
202 200 208 199 199 211 204 200 193 192 214 233 236 248 250 245 249 276 261 255 257 268 286 299 287 279 271 265 259 262 262 255 252 254 261 259 261 274 282 278 275 279 286
205 203 198 202 206 213 213 207 213 220 209 229 230 255 246 251 262 267 282 278 281 275 274 279 275 270 266 264 262 257 260 258 261 259 259 263 262 264 275 283 281 283 288